| time (UTC) | temp F | wind direction | speed knots | gust knots | rain 1hr in | rain 24hr in | rain mn in | humidity % | barometer mb |
| 20260507085607 | 38 | 298 | 0.0 | 0.0 | 0.00 | 0.00 | 0.00 | 83 | 1013.9 |
| 20260507084539 | 38 | 298 | 0.0 | 0.0 | 0.00 | 0.00 | 0.00 | 83 | 1013.8 |
| 20260507082446 | 38 | 298 | 0.0 | 0.0 | 0.00 | 0.00 | 0.00 | 83 | 1013.8 |
| 20260507081445 | 39 | 298 | 0.0 | 0.0 | 0.00 | 0.00 | 0.00 | 83 | 1013.7 |
| 20260507075410 | 39 | 298 | 0.0 | 0.0 | 0.00 | 0.01 | 0.00 | 83 | 1013.7 |
| 20260507074352 | 39 | 298 | 0.0 | 0.0 | 0.00 | 0.03 | 0.00 | 83 | 1013.8 |
| 20260507073318 | 40 | 298 | 0.0 | 0.0 | 0.00 | 0.04 | 0.00 | 83 | 1013.8 |
| 20260507072256 | 40 | 298 | 0.0 | 0.0 | 0.00 | 0.05 | 0.00 | 83 | 1013.8 |
| 20260507071242 | 40 | 298 | 0.0 | 0.0 | 0.00 | 0.05 | 0.00 | 83 | 1013.8 |
| 20260507065058 | 41 | 298 | 0.0 | 0.0 | 0.00 | 0.05 | 0.00 | 83 | 1013.8 |
| 20260507064058 | 41 | 298 | 0.0 | 0.0 | 0.00 | 0.06 | 0.00 | 83 | 1013.9 |
| 20260507063035 | 41 | 298 | 0.0 | 0.0 | 0.00 | 0.06 | 0.00 | 83 | 1013.8 |
| 20260507062017 | 41 | 298 | 0.0 | 0.0 | 0.00 | 0.07 | 0.00 | 83 | 1013.9 |
| 20260507060949 | 42 | 298 | 0.0 | 0.0 | 0.00 | 0.09 | 0.00 | 83 | 1013.9 |
| 20260507055953 | 42 | 298 | 0.0 | 0.0 | 0.00 | 0.11 | 0.00 | 83 | 1014.0 |
| 20260507054936 | 42 | 298 | 0.0 | 0.0 | 0.00 | 0.12 | 0.00 | 82 | 1013.9 |
| 20260507053925 | 42 | 298 | 0.0 | 0.0 | 0.00 | 0.13 | 0.00 | 82 | 1013.9 |
| 20260507052912 | 42 | 298 | 0.0 | 0.0 | 0.00 | 0.15 | 0.00 | 81 | 1014.1 |
| 20260507051900 | 42 | 298 | 0.0 | 0.0 | 0.00 | 0.16 | 0.00 | 81 | 1014.2 |
| 20260507050853 | 42 | 298 | 0.0 | 0.0 | 0.00 | 0.18 | 0.00 | 81 | 1014.2 |
| 20260507045828 | 42 | 298 | 0.0 | 0.0 | 0.00 | 0.20 | 0.00 | 81 | 1014.1 |
| 20260507044815 | 42 | 298 | 0.0 | 0.0 | 0.00 | 0.21 | 0.00 | 80 | 1014.0 |
| 20260507043805 | 42 | 298 | 0.0 | 0.0 | 0.00 | 0.22 | 0.00 | 80 | 1013.9 |
| 20260507042807 | 43 | 298 | 0.0 | 0.0 | 0.00 | 0.23 | 0.00 | 79 | 1013.9 |
| 20260507041813 | 43 | 298 | 0.0 | 0.0 | 0.00 | 0.24 | 0.00 | 79 | 1013.9 |
| 20260507040834 | 43 | 298 | 0.0 | 0.0 | 0.00 | 0.26 | 0.00 | 79 | 1013.8 |
| 20260507034743 | 44 | 298 | 0.0 | 0.0 | 0.00 | 0.26 | 0.27 | 78 | 1013.8 |
| 20260507033748 | 44 | 298 | 0.0 | 0.0 | 0.00 | 0.26 | 0.27 | 78 | 1013.8 |
| 20260507032730 | 45 | 298 | 0.0 | 0.0 | 0.00 | 0.26 | 0.27 | 77 | 1014.0 |
| 20260507031701 | 45 | 298 | 0.0 | 0.0 | 0.00 | 0.28 | 0.27 | 77 | 1014.0 |
| 20260507030709 | 45 | 298 | 0.0 | 0.0 | 0.00 | 0.28 | 0.27 | 77 | 1014.0 |
| 20260507023358 | 47 | 298 | 0.0 | 0.0 | 0.00 | 0.30 | 0.27 | 74 | 1014.2 |
| 20260507022336 | 48 | 298 | 0.0 | 0.0 | 0.00 | 0.32 | 0.27 | 73 | 1014.0 |
| 20260507021353 | 48 | 298 | 0.0 | 0.0 | 0.00 | 0.34 | 0.27 | 72 | 1014.0 |
| 20260507020345 | 49 | 298 | 0.0 | 0.0 | 0.00 | 0.36 | 0.27 | 70 | 1013.8 |
| 20260507014134 | 51 | 298 | 0.0 | 0.0 | 0.00 | 0.38 | 0.27 | 67 | 1013.5 |
| 20260507013116 | 52 | 298 | 0.0 | 0.0 | 0.00 | 0.39 | 0.27 | 65 | 1013.5 |
| 20260507012131 | 53 | 298 | 0.0 | 0.0 | 0.00 | 0.43 | 0.27 | 62 | 1013.5 |
| 20260507011058 | 54 | 298 | 0.0 | 0.0 | 0.00 | 0.46 | 0.27 | 60 | 1013.5 |
| 20260507004932 | 55 | 298 | 0.0 | 0.0 | 0.00 | 0.52 | 0.27 | 56 | 1013.3 |
| 20260507003923 | 55 | 298 | 0.0 | 0.0 | 0.00 | 0.52 | 0.27 | 54 | 1013.0 |
| 20260507002923 | 55 | 298 | 0.0 | 0.0 | 0.00 | 0.54 | 0.27 | 50 | 1012.8 |
| 20260507001854 | 56 | 298 | 0.0 | 0.0 | 0.00 | 0.56 | 0.27 | 50 | 1012.8 |
| 20260507000832 | 56 | 298 | 0.0 | 0.0 | 0.00 | 0.58 | 0.27 | 49 | 1012.7 |
| 20260506235800 | 56 | 298 | 0.0 | 0.0 | 0.00 | 0.59 | 0.27 | 49 | 1012.7 |
| 20260506232521 | 57 | 345 | 0.0 | 0.0 | 0.00 | 0.63 | 0.27 | 47 | 1012.6 |
| 20260506231454 | 58 | 32 | 0.0 | 0.0 | 0.00 | 0.64 | 0.27 | 46 | 1012.5 |
| 20260506230512 | 58 | 283 | 0.0 | 0.0 | 0.00 | 0.67 | 0.27 | 46 | 1012.6 |
| 20260506225512 | 58 | 281 | 0.0 | 0.0 | 0.00 | 0.68 | 0.27 | 46 | 1012.7 |
| 20260506224534 | 58 | 45 | 0.0 | 0.0 | 0.00 | 0.71 | 0.27 | 46 | 1013.0 |
| 20260506223525 | 58 | 255 | 0.0 | 0.0 | 0.00 | 0.76 | 0.27 | 47 | 1012.9 |
| 20260506222514 | 58 | 255 | 0.0 | 0.0 | 0.00 | 0.77 | 0.27 | 45 | 1013.0 |
| 20260506221523 | 58 | 254 | 0.0 | 0.0 | 0.00 | 0.77 | 0.27 | 46 | 1013.1 |
| 20260506220514 | 58 | 288 | 0.0 | 0.0 | 0.00 | 0.79 | 0.27 | 45 | 1013.0 |
| 20260506214407 | 58 | 243 | 0.0 | 0.0 | 0.00 | 0.81 | 0.27 | 43 | 1012.8 |
| 20260506213423 | 58 | 253 | 0.0 | 0.0 | 0.00 | 0.81 | 0.27 | 42 | 1012.7 |
| 20260506212414 | 59 | 227 | 0.0 | 0.0 | 0.00 | 0.81 | 0.27 | 43 | 1012.6 |
| 20260506211356 | 59 | 257 | 0.0 | 1.7 | 0.00 | 0.81 | 0.27 | 43 | 1012.4 |
| 20260506210347 | 58 | 259 | 0.0 | 0.0 | 0.00 | 0.82 | 0.27 | 47 | 1012.5 |
| 20260506205318 | 58 | 271 | 0.0 | 0.0 | 0.00 | 0.83 | 0.27 | 46 | 1012.3 |
| 20260506204323 | 58 | 295 | 0.0 | 0.0 | 0.00 | 0.84 | 0.27 | 46 | 1012.4 |
| 20260506203255 | 59 | 245 | 0.0 | 1.7 | 0.00 | 0.86 | 0.27 | 45 | 1012.4 |
| 20260506201113 | 59 | 298 | 0.0 | 0.0 | 0.00 | 0.89 | 0.27 | 45 | 1012.4 |
| 20260506200047 | 59 | 273 | 0.0 | 0.0 | 0.00 | 0.93 | 0.27 | 46 | 1012.2 |
| 20260506195030 | 59 | 252 | 0.0 | 0.0 | 0.00 | 0.93 | 0.27 | 45 | 1012.1 |
| 20260506194022 | 60 | 232 | 0.0 | 0.0 | 0.00 | 0.93 | 0.27 | 47 | 1012.1 |
| 20260506193039 | 59 | 252 | 0.0 | 0.0 | 0.00 | 0.93 | 0.27 | 49 | 1012.1 |
| 20260506192059 | 59 | 30 | 0.0 | 0.0 | 0.00 | 0.93 | 0.27 | 45 | 1012.2 |
| 20260506191113 | 59 | 231 | 0.0 | 0.0 | 0.00 | 0.93 | 0.27 | 46 | 1012.2 |
| 20260506190116 | 60 | 251 | 0.0 | 0.0 | 0.00 | 0.93 | 0.27 | 45 | 1012.2 |
| 20260506185141 | 61 | 265 | 0.0 | 0.0 | 0.00 | 0.93 | 0.27 | 44 | 1012.1 |
| 20260506184115 | 62 | 265 | 0.0 | 0.0 | 0.00 | 0.93 | 0.27 | 44 | 1012.0 |
| 20260506182027 | 62 | 271 | 0.0 | 0.0 | 0.00 | 0.93 | 0.27 | 47 | 1012.0 |
| 20260506180958 | 62 | 306 | 0.0 | 0.0 | 0.00 | 0.93 | 0.27 | 48 | 1012.1 |
| 20260506174922 | 61 | 232 | 0.0 | 0.0 | 0.00 | 0.93 | 0.27 | 48 | 1012.3 |
| 20260506171635 | 60 | 25 | 0.0 | 0.0 | 0.00 | 0.93 | 0.27 | 52 | 1012.4 |
| 20260506165558 | 61 | 78 | 0.0 | 0.0 | 0.00 | 0.93 | 0.27 | 51 | 1012.3 |
| 20260506164547 | 61 | 253 | 0.0 | 0.0 | 0.00 | 0.93 | 0.27 | 51 | 1012.1 |
| 20260506163548 | 60 | 277 | 0.0 | 0.0 | 0.00 | 0.93 | 0.27 | 52 | 1012.1 |
| 20260506162532 | 60 | 259 | 0.0 | 0.0 | 0.00 | 0.93 | 0.27 | 50 | 1012.3 |
| 20260506161546 | 59 | 262 | 0.0 | 0.0 | 0.00 | 0.93 | 0.27 | 54 | 1012.4 |
| 20260506160552 | 59 | 261 | 0.0 | 0.0 | 0.00 | 0.93 | 0.27 | 55 | 1012.2 |
| 20260506154432 | 58 | 252 | 0.0 | 0.0 | 0.00 | 0.93 | 0.27 | 58 | 1012.4 |
| 20260506153429 | 57 | 259 | 0.0 | 0.0 | 0.00 | 0.93 | 0.27 | 58 | 1012.2 |
| 20260506152412 | 56 | 275 | 0.0 | 0.0 | 0.00 | 0.93 | 0.27 | 58 | 1011.8 |
| 20260506151412 | 56 | 248 | 0.0 | 0.0 | 0.00 | 0.93 | 0.27 | 63 | 1011.6 |
| 20260506150415 | 55 | 347 | 0.0 | 0.0 | 0.00 | 0.93 | 0.27 | 66 | 1011.5 |
| 20260506145414 | 54 | 42 | 0.0 | 0.0 | 0.00 | 0.93 | 0.27 | 65 | 1011.3 |
| 20260506144340 | 54 | 252 | 0.0 | 0.0 | 0.00 | 0.93 | 0.27 | 65 | 1011.6 |
| 20260506141131 | 51 | 290 | 0.0 | 0.0 | 0.00 | 0.93 | 0.27 | 73 | 1011.4 |
| 20260506140117 | 50 | 272 | 0.0 | 0.0 | 0.00 | 0.93 | 0.27 | 74 | 1011.3 |
| 20260506133908 | 49 | 303 | 0.0 | 0.0 | 0.00 | 0.92 | 0.26 | 78 | 1011.0 |
| 20260506132909 | 49 | 291 | 0.0 | 0.0 | 0.00 | 0.92 | 0.26 | 79 | 1010.8 |
| 20260506131921 | 48 | 291 | 0.0 | 0.0 | 0.00 | 0.92 | 0.26 | 80 | 1010.8 |
| 20260506130902 | 48 | 294 | 0.0 | 0.0 | 0.00 | 0.92 | 0.26 | 81 | 1010.7 |
| 20260506124735 | 47 | 300 | 0.0 | 0.0 | 0.00 | 0.92 | 0.26 | 83 | 1010.2 |
| 20260506123758 | 47 | 297 | 0.0 | 0.0 | 0.00 | 0.92 | 0.26 | 83 | 1010.5 |
| 20260506122757 | 47 | 296 | 0.0 | 0.0 | 0.00 | 0.92 | 0.26 | 83 | 1010.5 |
| 20260506121743 | 47 | 298 | 0.0 | 0.0 | 0.00 | 0.92 | 0.26 | 84 | 1010.3 |
| 20260506120734 | 46 | 298 | 0.0 | 0.0 | 0.00 | 0.92 | 0.26 | 84 | 1009.9 |
| 20260506115757 | 46 | 298 | 0.0 | 0.0 | 0.00 | 0.92 | 0.26 | 84 | 1009.5 |
| 20260506114804 | 46 | 296 | 0.0 | 0.0 | 0.00 | 0.92 | 0.26 | 84 | 1009.2 |
| 20260506112628 | 46 | 282 | 0.0 | 0.0 | 0.00 | 0.92 | 0.26 | 84 | 1009.1 |
| 20260506111603 | 45 | 282 | 0.0 | 0.0 | 0.00 | 0.92 | 0.26 | 84 | 1009.4 |
| 20260506105436 | 46 | 355 | 0.0 | 0.0 | 0.00 | 0.92 | 0.26 | 85 | 1008.6 |
| 20260506104416 | 46 | 355 | 0.0 | 0.0 | 0.00 | 0.93 | 0.26 | 85 | 1008.3 |
| 20260506103410 | 46 | 0 | 0.0 | 0.0 | 0.00 | 0.93 | 0.26 | 85 | 1007.9 |
| 20260506102410 | 46 | 10 | 0.0 | 0.0 | 0.00 | 0.94 | 0.26 | 86 | 1008.1 |
| 20260506100258 | 46 | 27 | 0.0 | 0.0 | 0.00 | 0.96 | 0.26 | 86 | 1008.0 |
| 20260506095236 | 46 | 26 | 0.0 | 0.0 | 0.00 | 0.97 | 0.26 | 86 | 1007.9 |
| 20260506094252 | 46 | 27 | 0.0 | 0.0 | 0.00 | 0.97 | 0.26 | 86 | 1007.5 |
| 20260506093218 | 46 | 27 | 0.0 | 0.0 | 0.00 | 0.98 | 0.26 | 86 | 1006.9 |
| 20260506092143 | 46 | 27 | 0.0 | 0.0 | 0.00 | 0.99 | 0.26 | 86 | 1007.1 |
| 20260506091126 | 46 | 25 | 0.0 | 0.0 | 0.00 | 1.01 | 0.26 | 86 | 1007.4 |
| 20260506090148 | 46 | 25 | 0.0 | 0.0 | 0.00 | 1.02 | 0.26 | 86 | 1007.2 |